Time,TemperatureF,DewpointF,PressureIn,WindDirection,WindDirectionDegrees,WindSpeedMPH,WindSpeedGustMPH,Humidity,HourlyPrecipIn,Conditions,Clouds,dailyrainin,SoftwareType,DateUTC
2013-02-14 00:03:00,33.3,30.6,29.64,SE,144,8.0,12.0,90,0.00,SN,SN,0.00,WeatherDisplay:10.37,2013-02-14 06:03:00,
2013-02-14 03:13:00,34.5,32.7,29.56,South,171,6.0,14.0,93,0.00,SN,SN,0.00,WeatherDisplay:10.37,2013-02-14 09:13:00,
2013-02-14 03:23:00,34.3,32.5,29.56,South,170,2.0,12.0,93,0.00,SN,SN,0.00,WeatherDisplay:10.37,2013-02-14 09:23:00,
2013-02-14 03:33:00,34.3,32.5,29.56,South,183,7.0,13.0,93,0.00,SN,SN,0.00,WeatherDisplay:10.37,2013-02-14 09:33:00,
2013-02-14 03:43:00,34.3,32.3,29.56,South,184,3.0,13.0,92,0.00,SN,SN,0.00,WeatherDisplay:10.37,2013-02-14 09:43:00,
2013-02-14 03:53:00,34.3,32.2,29.55,SSW,192,2.0,10.0,92,0.00,SN,SN,0.00,WeatherDisplay:10.37,2013-02-14 09:53:00,
2013-02-14 04:03:00,34.3,32.0,29.55,South,182,5.0,12.0,91,0.00,SN,SN,0.00,WeatherDisplay:10.37,2013-02-14 10:03:00,
2013-02-14 04:13:00,34.2,31.5,29.55,SW,214,3.0,7.0,90,0.00,SN,SN,0.00,WeatherDisplay:10.37,2013-02-14 10:13:00,
2013-02-14 04:23:00,34.2,31.5,29.55,SW,220,2.0,9.0,90,0.00,SN,SN,0.00,WeatherDisplay:10.37,2013-02-14 10:23:00,
2013-02-14 04:33:00,34.3,31.4,29.55,SW,220,8.0,13.0,89,0.00,SN,SN,0.00,WeatherDisplay:10.37,2013-02-14 10:33:00,
2013-02-14 04:43:00,34.2,31.3,29.55,SW,230,5.0,14.0,89,0.00,SN,SN,0.00,WeatherDisplay:10.37,2013-02-14 10:43:00,
2013-02-14 04:53:00,34.0,31.1,29.55,SW,225,6.0,14.0,89,0.00,SN,SN,0.00,WeatherDisplay:10.37,2013-02-14 10:53:00,
2013-02-14 05:03:00,33.8,30.9,29.55,SW,220,6.0,12.0,89,0.00,SN,SN,0.00,WeatherDisplay:10.37,2013-02-14 11:03:00,
2013-02-14 05:13:00,33.8,30.9,29.55,SW,217,5.0,12.0,89,0.00,SN,SN,0.00,WeatherDisplay:10.37,2013-02-14 11:13:00,
2013-02-14 05:23:00,33.6,31.0,29.55,SW,214,5.0,10.0,90,0.00,SN,SN,0.00,WeatherDisplay:10.37,2013-02-14 11:23:00,
2013-02-14 05:33:00,33.4,30.8,29.55,SW,227,7.0,10.0,90,0.00,SN,SN,0.00,WeatherDisplay:10.37,2013-02-14 11:33:00,
2013-02-14 05:43:00,33.3,30.6,29.55,SW,216,5.0,14.0,90,0.00,SN,SN,0.00,WeatherDisplay:10.37,2013-02-14 11:43:00,
2013-02-14 05:53:00,33.4,31.1,29.55,SSW,208,3.0,10.0,91,0.00,SN,SN,0.00,WeatherDisplay:10.37,2013-02-14 11:53:00,
2013-02-14 06:03:00,33.6,31.3,29.55,SW,218,7.0,12.0,91,0.00,SN,SN,0.00,WeatherDisplay:10.37,2013-02-14 12:03:00,
2013-02-14 06:13:00,34.2,31.3,29.56,West,261,9.0,17.0,89,0.00,SN,SN,0.00,WeatherDisplay:10.37,2013-02-14 12:13:00,
2013-02-14 06:23:00,34.5,31.6,29.56,WSW,239,8.0,16.0,89,0.00,SN,SN,0.00,WeatherDisplay:10.37,2013-02-14 12:23:00,
2013-02-14 06:33:00,34.5,31.6,29.56,WSW,251,8.0,17.0,89,0.00,SN,SN,0.00,WeatherDisplay:10.37,2013-02-14 12:33:00,
2013-02-14 06:43:00,34.3,31.7,29.56,West,269,8.0,16.0,90,0.00,SN,SN,0.00,WeatherDisplay:10.37,2013-02-14 12:43:00,
2013-02-14 06:53:00,34.5,31.9,29.57,WSW,240,10.0,17.0,90,0.00,SN,SN,0.00,WeatherDisplay:10.37,2013-02-14 12:53:00,
2013-02-14 07:03:00,34.7,32.3,29.57,West,264,9.0,21.0,91,0.00,SN,SN,0.00,WeatherDisplay:10.37,2013-02-14 13:03:00,
2013-02-14 07:13:00,34.7,32.6,29.57,West,261,8.0,20.0,92,0.00,SN,SN,0.00,WeatherDisplay:10.37,2013-02-14 13:13:00,
2013-02-14 07:23:00,34.9,32.8,29.57,WSW,253,7.0,18.0,92,0.00,SN,SN,0.00,WeatherDisplay:10.37,2013-02-14 13:23:00,
2013-02-14 08:23:00,35.1,34.0,29.59,West,264,10.0,16.0,96,0.00,SN,SN,0.00,WeatherDisplay:10.37,2013-02-14 14:23:00,
2013-02-14 08:33:00,35.2,33.9,29.59,West,279,8.0,17.0,95,0.00,SN,SN,0.00,WeatherDisplay:10.37,2013-02-14 14:33:00,
2013-02-14 08:43:00,35.1,33.8,29.59,WNW,282,10.0,22.0,95,0.00,SN,SN,0.00,WeatherDisplay:10.37,2013-02-14 14:43:00,
2013-02-14 08:53:00,34.9,34.1,29.60,West,271,10.0,21.0,97,0.00,SN,SN,0.00,WeatherDisplay:10.37,2013-02-14 14:53:00,
2013-02-14 09:03:00,34.7,34.4,29.60,WSW,249,12.0,20.0,99,0.00,SN,SN,0.00,WeatherDisplay:10.37,2013-02-14 15:03:00,
2013-02-14 09:13:00,34.3,34.1,29.60,WSW,246,9.0,20.0,99,0.00,SN,SN,0.00,WeatherDisplay:10.37,2013-02-14 15:13:00,
2013-02-14 09:23:00,34.3,34.1,29.61,WNW,286,9.0,20.0,99,0.00,SN,SN,0.00,WeatherDisplay:10.37,2013-02-14 15:23:00,
2013-02-14 09:33:00,34.7,34.4,29.61,West,272,13.0,24.0,99,0.00,SN,SN,0.00,WeatherDisplay:10.37,2013-02-14 15:33:00,
2013-02-14 09:43:00,34.5,34.3,29.62,West,277,13.0,23.0,99,0.00,SN,SN,0.00,WeatherDisplay:10.37,2013-02-14 15:43:00,
2013-02-14 09:53:00,34.2,33.9,29.62,West,276,7.0,18.0,99,0.00,SN,SN,0.00,WeatherDisplay:10.37,2013-02-14 15:53:00,
2013-02-14 10:03:00,33.8,33.5,29.63,NW,308,10.0,17.0,99,0.00,SN,SN,0.00,WeatherDisplay:10.37,2013-02-14 16:03:00,
2013-02-14 10:13:00,33.3,32.5,29.64,WNW,303,16.0,25.0,97,0.00,SN,SN,0.00,WeatherDisplay:10.37,2013-02-14 16:13:00,
2013-02-14 10:23:00,32.9,31.6,29.65,NW,312,9.0,26.0,95,0.00,SN,SN,0.00,WeatherDisplay:10.37,2013-02-14 16:23:00,
2013-02-14 10:33:00,32.7,30.9,29.66,NW,311,14.0,32.0,93,0.00,SN,SN,0.00,WeatherDisplay:10.37,2013-02-14 16:33:00,
2013-02-14 10:43:00,32.7,31.4,29.66,WNW,293,9.0,25.0,95,0.00,SN,SN,0.00,WeatherDisplay:10.37,2013-02-14 16:43:00,
2013-02-14 10:53:00,32.2,29.6,29.67,WNW,301,16.0,29.0,90,0.00,SN,SN,0.01,WeatherDisplay:10.37,2013-02-14 16:53:00,
2013-02-14 11:03:00,32.5,29.7,29.67,WNW,296,12.0,20.0,89,0.00,SN,SN,0.01,WeatherDisplay:10.37,2013-02-14 17:03:00,
2013-02-14 11:13:00,33.8,29.8,29.67,NW,307,13.0,32.0,85,0.00,SN,SN,0.01,WeatherDisplay:10.37,2013-02-14 17:13:00,
2013-02-14 11:23:00,33.3,29.3,29.68,WNW,295,9.0,31.0,85,0.00,SN,SN,0.01,WeatherDisplay:10.37,2013-02-14 17:23:00,
2013-02-14 11:33:00,33.7,29.1,29.69,NW,320,15.0,29.0,83,0.00,SN,SN,0.01,WeatherDisplay:10.37,2013-02-14 17:33:00,
2013-02-14 11:43:00,34.5,29.3,29.69,NW,314,13.0,31.0,81,0.00,SN,SN,0.01,WeatherDisplay:10.37,2013-02-14 17:43:00,
2013-02-14 11:53:00,34.3,28.5,29.69,NW,305,14.0,32.0,79,0.00,SN,SN,0.01,WeatherDisplay:10.37,2013-02-14 17:53:00,
2013-02-14 12:03:00,34.5,28.4,29.70,WNW,303,15.0,24.0,78,0.00,SN,SN,0.01,WeatherDisplay:10.37,2013-02-14 18:03:00,
2013-02-14 12:13:00,34.1,27.6,29.71,NW,313,17.0,29.0,77,0.00,SN,SN,0.01,WeatherDisplay:10.37,2013-02-14 18:13:00,
2013-02-14 12:23:00,34.0,26.9,29.71,WNW,297,13.0,29.0,75,0.00,SN,SN,0.01,WeatherDisplay:10.37,2013-02-14 18:23:00,
2013-02-14 12:33:00,34.7,27.0,29.72,WNW,298,14.0,24.0,73,0.00,SN,SN,0.01,WeatherDisplay:10.37,2013-02-14 18:33:00,
2013-02-14 12:43:00,34.5,26.1,29.72,WNW,294,9.0,25.0,71,0.00,SN,SN,0.01,WeatherDisplay:10.37,2013-02-14 18:43:00,
2013-02-14 12:53:00,34.2,25.8,29.73,WNW,303,12.0,24.0,71,0.00,SN,SN,0.01,WeatherDisplay:10.37,2013-02-14 18:53:00,
2013-02-14 13:03:00,34.2,25.4,29.74,NW,312,14.0,21.0,70,0.00,SN,SN,0.01,WeatherDisplay:10.37,2013-02-14 19:03:00,
2013-02-14 13:13:00,34.0,24.2,29.75,NW,305,16.0,29.0,67,0.00,SN,SN,0.01,WeatherDisplay:10.37,2013-02-14 19:13:00,
2013-02-14 13:23:00,35.7,25.1,29.75,NW,305,10.0,18.0,65,0.00,SN,SN,0.01,WeatherDisplay:10.37,2013-02-14 19:23:00,
2013-02-14 13:33:00,36.3,24.1,29.75,WNW,294,9.0,22.0,61,0.00,SN,SN,0.01,WeatherDisplay:10.37,2013-02-14 19:33:00,
2013-02-14 13:43:00,37.4,22.3,29.75,WNW,291,20.0,31.0,54,0.00,SN,SN,0.01,WeatherDisplay:10.37,2013-02-14 19:43:00,
2013-02-14 13:53:00,35.1,21.0,29.75,NW,306,21.0,29.0,56,0.00,SN,SN,0.01,WeatherDisplay:10.37,2013-02-14 19:53:00,
2013-02-14 14:03:00,34.5,21.2,29.76,WNW,301,20.0,31.0,58,0.00,SN,SN,0.01,WeatherDisplay:10.37,2013-02-14 20:03:00,
2013-02-14 14:13:00,34.3,21.5,29.77,WNW,293,13.0,25.0,59,0.00,SN,SN,0.01,WeatherDisplay:10.37,2013-02-14 20:13:00,
2013-02-14 14:23:00,34.0,21.1,29.77,WNW,295,16.0,30.0,59,0.00,SN,SN,0.01,WeatherDisplay:10.37,2013-02-14 20:23:00,
2013-02-14 14:33:00,33.6,21.2,29.77,WNW,298,16.0,30.0,60,0.00,SN,SN,0.01,WeatherDisplay:10.37,2013-02-14 20:33:00,
2013-02-14 14:43:00,33.4,21.8,29.78,WNW,288,16.0,24.0,62,0.00,SN,SN,0.01,WeatherDisplay:10.37,2013-02-14 20:43:00,
2013-02-14 14:53:00,33.4,22.6,29.78,WNW,303,9.0,18.0,64,0.00,SN,SN,0.01,WeatherDisplay:10.37,2013-02-14 20:53:00,
2013-02-14 15:03:00,33.3,23.1,29.79,WNW,293,9.0,21.0,66,0.00,SN,SN,0.01,WeatherDisplay:10.37,2013-02-14 21:03:00,
2013-02-14 15:13:00,33.1,22.6,29.80,WNW,302,12.0,25.0,65,0.00,SN,SN,0.01,WeatherDisplay:10.37,2013-02-14 21:13:00,
2013-02-14 15:23:00,33.3,22.8,29.81,West,281,9.0,16.0,65,0.00,SN,SN,0.01,WeatherDisplay:10.37,2013-02-14 21:23:00,
2013-02-14 15:33:00,33.3,22.4,29.81,WNW,301,7.0,20.0,64,0.00,SN,SN,0.01,WeatherDisplay:10.37,2013-02-14 21:33:00,
2013-02-14 15:43:00,33.3,21.6,29.82,WNW,301,13.0,21.0,62,0.00,SN,SN,0.01,WeatherDisplay:10.37,2013-02-14 21:43:00,
2013-02-14 15:53:00,33.3,21.6,29.82,WNW,296,8.0,14.0,62,0.00,SN,SN,0.01,WeatherDisplay:10.37,2013-02-14 21:53:00,
2013-02-14 16:03:00,33.1,22.2,29.83,WNW,300,5.0,16.0,64,0.00,SN,SN,0.01,WeatherDisplay:10.37,2013-02-14 22:03:00,
2013-02-14 16:13:00,33.0,21.8,29.83,WNW,288,14.0,25.0,63,0.00,SN,SN,0.01,WeatherDisplay:10.37,2013-02-14 22:13:00,
2013-02-14 16:23:00,33.1,21.8,29.84,WNW,289,10.0,22.0,63,0.00,SN,SN,0.01,WeatherDisplay:10.37,2013-02-14 22:23:00,
2013-02-14 16:33:00,33.1,22.2,29.84,WNW,297,10.0,18.0,64,0.00,SN,SN,0.01,WeatherDisplay:10.37,2013-02-14 22:33:00,
2013-02-14 16:43:00,32.9,21.7,29.85,West,280,9.0,17.0,63,0.00,SN,SN,0.01,WeatherDisplay:10.37,2013-02-14 22:43:00,
2013-02-14 16:53:00,32.9,21.3,29.85,WNW,297,9.0,16.0,62,0.00,SN,SN,0.01,WeatherDisplay:10.37,2013-02-14 22:53:00,
2013-02-14 17:03:00,32.9,21.3,29.86,West,270,9.0,15.0,62,0.00,SN,SN,0.01,WeatherDisplay:10.37,2013-02-14 23:03:00,
2013-02-14 17:13:00,32.6,21.4,29.86,West,280,6.0,15.0,63,0.00,SN,SN,0.01,WeatherDisplay:10.37,2013-02-14 23:13:00,
2013-02-14 17:23:00,32.5,21.3,29.87,WNW,288,6.0,15.0,63,0.00,SN,SN,0.01,WeatherDisplay:10.37,2013-02-14 23:23:00,
2013-02-14 17:33:00,32.4,20.8,29.87,WNW,292,10.0,17.0,62,0.00,SN,SN,0.01,WeatherDisplay:10.37,2013-02-14 23:33:00,
2013-02-14 17:43:00,32.4,21.2,29.88,WNW,297,6.0,18.0,63,0.00,SN,SN,0.01,WeatherDisplay:10.37,2013-02-14 23:43:00,
2013-02-14 17:53:00,32.3,20.7,29.88,West,279,8.0,13.0,62,0.00,SN,SN,0.01,WeatherDisplay:10.37,2013-02-14 23:53:00,
2013-02-14 18:03:00,32.2,21.0,29.89,WNW,283,6.0,12.0,63,0.00,SN,SN,0.01,WeatherDisplay:10.37,2013-02-15 00:03:00,
2013-02-14 18:13:00,32.0,20.8,29.89,NW,305,7.0,14.0,63,0.00,SN,SN,0.01,WeatherDisplay:10.37,2013-02-15 00:13:00,
2013-02-14 18:23:00,31.8,20.6,29.90,WNW,294,7.0,13.0,63,0.00,SN,SN,0.01,WeatherDisplay:10.37,2013-02-15 00:23:00,
2013-02-14 18:33:00,31.8,20.6,29.90,WNW,297,6.0,9.0,63,0.00,SN,SN,0.01,WeatherDisplay:10.37,2013-02-15 00:33:00,
2013-02-14 18:43:00,31.6,20.1,29.90,WNW,300,8.0,15.0,62,0.00,SN,SN,0.01,WeatherDisplay:10.37,2013-02-15 00:43:00,
2013-02-14 18:53:00,31.5,20.4,29.91,WNW,299,6.0,8.0,63,0.00,SN,SN,0.01,WeatherDisplay:10.37,2013-02-15 00:53:00,
2013-02-14 19:03:00,31.6,20.5,29.91,WNW,290,6.0,10.0,63,0.00,SN,SN,0.01,WeatherDisplay:10.37,2013-02-15 01:03:00,
2013-02-14 19:13:00,31.6,20.8,29.91,WNW,292,6.0,13.0,64,0.00,SN,SN,0.01,WeatherDisplay:10.37,2013-02-15 01:13:00,
2013-02-14 19:23:00,31.5,20.7,29.91,West,276,3.0,9.0,64,0.00,SN,SN,0.01,WeatherDisplay:10.37,2013-02-15 01:23:00,
2013-02-14 19:33:00,31.5,20.7,29.92,WNW,286,2.0,6.0,64,0.00,SN,SN,0.01,WeatherDisplay:10.37,2013-02-15 01:33:00,
2013-02-14 19:43:00,31.3,20.9,29.91,West,276,3.0,8.0,65,0.00,SN,SN,0.01,WeatherDisplay:10.37,2013-02-15 01:43:00,
2013-02-14 19:53:00,31.0,21.0,29.91,West,274,3.0,7.0,66,0.00,SN,SN,0.01,WeatherDisplay:10.37,2013-02-15 01:53:00,
2013-02-14 20:03:00,30.7,20.7,29.91,West,270,1.0,3.0,66,0.00,SN,SN,0.01,WeatherDisplay:10.37,2013-02-15 02:03:00,
2013-02-14 20:13:00,30.2,20.6,29.92,West,269,1.0,3.0,67,0.00,SN,SN,0.01,WeatherDisplay:10.37,2013-02-15 02:13:00,
2013-02-14 20:23:00,29.7,20.4,29.92,West,270,1.0,5.0,68,0.00,SN,SN,0.01,WeatherDisplay:10.37,2013-02-15 02:23:00,
2013-02-14 20:33:00,29.7,20.7,29.92,West,262,1.0,5.0,69,0.00,SN,SN,0.01,WeatherDisplay:10.37,2013-02-15 02:33:00,
2013-02-14 20:43:00,29.5,20.9,29.93,West,261,3.0,7.0,70,0.00,SN,SN,0.01,WeatherDisplay:10.37,2013-02-15 02:43:00,
2013-02-14 20:53:00,29.5,20.9,29.93,West,266,2.0,6.0,70,0.00,SN,SN,0.01,WeatherDisplay:10.37,2013-02-15 02:53:00,
2013-02-14 21:03:00,29.5,21.3,29.93,West,277,3.0,6.0,71,0.00,SN,SN,0.01,WeatherDisplay:10.37,2013-02-15 03:03:00,
2013-02-14 21:13:00,29.8,20.9,29.93,NW,310,3.0,8.0,69,0.00,SN,SN,0.01,WeatherDisplay:10.37,2013-02-15 03:13:00,
2013-02-14 21:23:00,30.0,20.7,29.93,NW,305,5.0,10.0,68,0.00,SN,SN,0.01,WeatherDisplay:10.37,2013-02-15 03:23:00,
2013-02-14 21:33:00,29.8,20.6,29.93,NW,308,5.0,9.0,68,0.00,SN,SN,0.01,WeatherDisplay:10.37,2013-02-15 03:33:00,
2013-02-14 21:43:00,30.0,20.7,29.93,WNW,302,9.0,16.0,68,0.00,SN,SN,0.01,WeatherDisplay:10.37,2013-02-15 03:43:00,
2013-02-14 21:53:00,30.0,21.4,29.93,WNW,297,6.0,14.0,70,0.00,SN,SN,0.01,WeatherDisplay:10.37,2013-02-15 03:53:00,
2013-02-14 22:03:00,29.7,21.7,29.94,WNW,293,2.0,7.0,72,0.00,SN,SN,0.01,WeatherDisplay:10.37,2013-02-15 04:03:00,
2013-02-14 22:13:00,28.9,22.9,29.94,WNW,298,13.0,23.0,78,0.00,SN,SN,0.01,WeatherDisplay:10.37,2013-02-15 04:13:00,
2013-02-14 22:23:00,27.6,24.7,29.95,NW,311,8.0,18.0,89,0.00,SN,SN,0.01,WeatherDisplay:10.37,2013-02-15 04:23:00,
2013-02-14 22:33:00,27.1,25.4,29.95,NW,310,6.0,17.0,93,0.00,SN,SN,0.01,WeatherDisplay:10.37,2013-02-15 04:33:00,
2013-02-14 22:43:00,27.1,25.6,29.95,NW,306,5.0,10.0,94,0.00,SN,SN,0.01,WeatherDisplay:10.37,2013-02-15 04:43:00,
2013-02-14 22:53:00,27.1,25.6,29.95,West,273,5.0,7.0,94,0.00,SN,SN,0.01,WeatherDisplay:10.37,2013-02-15 04:53:00,
2013-02-14 23:03:00,27.1,25.6,29.95,WNW,294,2.0,7.0,94,0.00,SN,SN,0.01,WeatherDisplay:10.37,2013-02-15 05:03:00,
2013-02-14 23:13:00,27.3,25.3,29.96,WNW,300,5.0,9.0,92,0.00,SN,SN,0.01,WeatherDisplay:10.37,2013-02-15 05:13:00,
2013-02-14 23:23:00,27.5,25.5,29.96,NW,315,5.0,9.0,92,0.00,SN,SN,0.01,WeatherDisplay:10.37,2013-02-15 05:23:00,
2013-02-14 23:33:00,26.8,21.4,29.97,NW,315,10.0,22.0,80,0.00,SN,SN,0.01,WeatherDisplay:10.37,2013-02-15 05:33:00,
2013-02-14 23:43:00,26.8,20.8,29.97,NW,315,8.0,23.0,78,0.00,SN,SN,0.01,WeatherDisplay:10.37,2013-02-15 05:43:00,
2013-02-14 23:53:00,26.6,20.4,29.97,NNW,332,5.0,15.0,77,0.00,SN,SN,0.01,WeatherDisplay:10.37,2013-02-15 05:53:00,